Tracking 27112 objects as of 26-Mar-2023
HD Live streaming from Space Station
objects crossing your sky now

SL-8 R/B

Track SL-8 R/B now!
10-day predictions


NORAD ID: 12150
Int'l Code: 1981-006B
Perigee: 935.4 km
Apogee: 1,026.2 km
Inclination: 65.8 °
Period: 104.6 minutes
Semi major axis: 7351 km
RCS: 5.2266 m2 (large)
Launch date: January 21, 1981
Source: Commonwealth of Independent States (former USSR) (CIS)
Launch site: PLESETSK MISSILE AND SPACE COMPLEX (PKMTR)

Note: This is a ROCKET BODY
Your satellite tracking list
Your tracking list is empty




NASA's NSSDC Master Catalog

Two Line Element Set (TLE):
1 12150U 81006B   23085.12031789 -.00000032  00000-0  49217-4 0  9996
2 12150  65.8196 243.1925 0061788 254.1213 105.3035 13.77245439119564
Source of the keplerian elements: AFSPC